Find Starlink 37010

NORAD ID: 68289 Int'l Des: 2026-055 Owner: SPXS Country: US Constellation: starlink operational
LEOCIRCULAR

当前视图

正在加载3D地球...

About Starlink 37010

Starlink 37010 (NORAD 68289) is a starlink constellation satellite (v2 mini) launched Mar 19, 2026 by SPXS of US. It operates in LEO, CIRCULAR orbit with a mass of 575.00 kg.

关于 Starlink 37010

正在加载描述...

即将过境

Passes for default location (London). Set your location on the main map for personalized predictions.

高度历史

Loading altitude history...

两行轨道根数

1 68289U 26055AD 26168.36439580 .00010152 00000-0 31112-3 0 9992
2 68289 53.1566 214.7054 0001196 83.4181 276.6958 15.34407503 15210
Epoch: Jun 17, 2026 • Age: 30 hours

当前状态

高度 466.3 km
速度 7.64 km/s
星下点 43.43°N, 147.48°W
发射日期 Mar 19, 2026
运行时间 0.2 years
类型 internet

技术详情

分类 Payload
质量 575.00 kg
干质量 530.00 kg
总质量 575.00 kg
长度 0.30 m
直径 4.10 m
跨度 29.00 m
形状 Box + pan
制造商 SPXS
平台类型 Starlink V2MO
阶段状态 In Orbit
所有者/国家 SPXS/US

Most Searched